| time (UTC) | temp F | wind direction | speed MPH | gust MPH | rain 1hr in | rain 24hr in | rain mn in | humidity % | barometer mb |
| 20260505125026 | 54 | 258 | 2.0 | 3.0 | 0.00 | 0.00 | 0.00 | 85 | 1015.0 |
| 20260505124520 | 54 | 258 | 3.0 | 5.0 | 0.00 | 0.00 | 0.00 | 85 | 1014.9 |
| 20260505124017 | 54 | 254 | 3.0 | 6.0 | 0.00 | 0.00 | 0.00 | 85 | 1014.8 |
| 20260505123515 | 54 | 247 | 3.0 | 6.0 | 0.00 | 0.00 | 0.00 | 85 | 1014.9 |
| 20260505123015 | 53 | 248 | 3.0 | 6.0 | 0.00 | 0.00 | 0.00 | 85 | 1014.7 |
| 20260505122512 | 54 | 257 | 3.0 | 6.0 | 0.00 | 0.00 | 0.00 | 86 | 1014.7 |
| 20260505122012 | 54 | 293 | 2.0 | 5.0 | 0.00 | 0.00 | 0.00 | 86 | 1014.7 |
| 20260505121737 | 54 | 238 | 2.0 | 4.0 | 0.00 | 0.00 | 0.00 | 86 | 1014.7 |
| 20260505121012 | 54 | 238 | 2.0 | 4.0 | 0.00 | 0.00 | 0.00 | 86 | 1014.7 |
| 20260505120721 | 54 | 238 | 2.0 | 5.0 | 0.00 | 0.00 | 0.00 | 86 | 1014.7 |
| 20260505115950 | 54 | 232 | 3.0 | 5.0 | 0.00 | 0.00 | 0.00 | 86 | 1014.6 |
| 20260505115439 | 54 | 288 | 3.0 | 6.0 | 0.00 | 0.00 | 0.00 | 86 | 1014.7 |
| 20260505114938 | 53 | 288 | 3.0 | 6.0 | 0.00 | 0.00 | 0.00 | 87 | 1014.7 |
| 20260505114434 | 53 | 265 | 2.0 | 6.0 | 0.00 | 0.00 | 0.00 | 88 | 1014.7 |
| 20260505114154 | 53 | 244 | 1.0 | 3.0 | 0.00 | 0.00 | 0.00 | 90 | 1014.7 |
| 20260505113427 | 53 | 244 | 1.0 | 3.0 | 0.00 | 0.00 | 0.00 | 90 | 1014.8 |
| 20260505112927 | 54 | 244 | 2.0 | 5.0 | 0.00 | 0.00 | 0.00 | 88 | 1014.8 |
| 20260505112422 | 54 | 248 | 2.0 | 5.0 | 0.00 | 0.00 | 0.00 | 85 | 1014.8 |
| 20260505111917 | 54 | 230 | 1.0 | 3.0 | 0.00 | 0.00 | 0.00 | 85 | 1014.7 |
| 20260505111412 | 54 | 230 | 1.0 | 3.0 | 0.00 | 0.00 | 0.00 | 85 | 1014.8 |
| 20260505110909 | 54 | 208 | 1.0 | 2.0 | 0.00 | 0.00 | 0.00 | 86 | 1014.8 |
| 20260505110404 | 54 | 208 | 1.0 | 3.0 | 0.00 | 0.00 | 0.00 | 86 | 1014.7 |
| 20260505110127 | 54 | 208 | 1.0 | 3.0 | 0.00 | 0.00 | 0.00 | 85 | 1014.8 |
| 20260505101812 | 54 | 242 | 2.0 | 4.0 | 0.00 | 0.00 | 0.00 | 87 | 1014.6 |
| 20260505101253 | 54 | 240 | 2.0 | 3.0 | 0.00 | 0.00 | 0.00 | 87 | 1014.4 |
| 20260505100752 | 54 | 234 | 2.0 | 5.0 | 0.00 | 0.00 | 0.00 | 87 | 1014.4 |
| 20260505100252 | 54 | 242 | 3.0 | 5.0 | 0.00 | 0.00 | 0.00 | 87 | 1014.5 |
| 20260505100231 | 54 | 235 | 3.0 | 6.0 | 0.00 | 0.00 | 0.00 | 86 | 1014.5 |
| 20260505095244 | 54 | 265 | 3.0 | 6.0 | 0.00 | 0.00 | 0.00 | 87 | 1014.5 |
| 20260505094742 | 54 | 240 | 3.0 | 6.0 | 0.00 | 0.00 | 0.00 | 86 | 1014.6 |
| 20260505094240 | 54 | 227 | 4.0 | 6.0 | 0.00 | 0.00 | 0.00 | 86 | 1014.6 |
| 20260505093957 | 54 | 243 | 4.0 | 6.0 | 0.00 | 0.00 | 0.00 | 86 | 1014.4 |
| 20260505093237 | 54 | 233 | 4.0 | 8.0 | 0.00 | 0.00 | 0.00 | 86 | 1014.5 |
| 20260505092729 | 54 | 219 | 5.0 | 8.0 | 0.00 | 0.00 | 0.00 | 86 | 1014.5 |
| 20260505092229 | 54 | 232 | 4.0 | 8.0 | 0.00 | 0.00 | 0.00 | 86 | 1014.4 |
| 20260505091728 | 54 | 233 | 3.0 | 6.0 | 0.00 | 0.00 | 0.00 | 86 | 1014.4 |
| 20260505091225 | 54 | 209 | 3.0 | 6.0 | 0.00 | 0.00 | 0.00 | 86 | 1014.4 |
| 20260505090945 | 54 | 206 | 2.0 | 6.0 | 0.00 | 0.00 | 0.00 | 86 | 1014.4 |
| 20260505090224 | 54 | 206 | 2.0 | 4.0 | 0.00 | 0.00 | 0.00 | 86 | 1014.6 |
| 20260505085713 | 54 | 223 | 3.0 | 5.0 | 0.00 | 0.00 | 0.00 | 86 | 1014.4 |
| 20260505085214 | 54 | 223 | 3.0 | 5.0 | 0.00 | 0.00 | 0.00 | 86 | 1014.5 |
| 20260505084716 | 54 | 227 | 4.0 | 5.0 | 0.00 | 0.00 | 0.00 | 85 | 1014.5 |
| 20260505084213 | 54 | 229 | 3.0 | 5.0 | 0.00 | 0.00 | 0.00 | 85 | 1014.5 |
| 20260505083714 | 54 | 242 | 3.0 | 6.0 | 0.00 | 0.00 | 0.00 | 85 | 1014.4 |
| 20260505083214 | 54 | 192 | 2.0 | 6.0 | 0.00 | 0.00 | 0.00 | 85 | 1014.4 |
| 20260505082714 | 54 | 229 | 2.0 | 4.0 | 0.00 | 0.00 | 0.00 | 86 | 1014.5 |
| 20260505082204 | 54 | 229 | 2.0 | 4.0 | 0.00 | 0.00 | 0.00 | 85 | 1014.6 |
| 20260505081659 | 54 | 210 | 3.0 | 4.0 | 0.00 | 0.00 | 0.00 | 85 | 1014.6 |
| 20260505081159 | 54 | 231 | 3.0 | 5.0 | 0.00 | 0.00 | 0.00 | 85 | 1014.5 |
| 20260505080917 | 54 | 235 | 3.0 | 7.0 | 0.00 | 0.00 | 0.00 | 85 | 1014.6 |
| 20260505080158 | 54 | 212 | 4.0 | 7.0 | 0.00 | 0.00 | 0.00 | 85 | 1014.6 |
| 20260505075659 | 54 | 211 | 4.0 | 8.0 | 0.00 | 0.00 | 0.00 | 85 | 1014.6 |
| 20260505075422 | 54 | 245 | 4.0 | 8.0 | 0.00 | 0.00 | 0.00 | 85 | 1014.7 |
| 20260505074658 | 54 | 236 | 6.0 | 11.0 | 0.00 | 0.00 | 0.00 | 85 | 1014.6 |
| 20260505074420 | 54 | 227 | 6.0 | 11.0 | 0.00 | 0.00 | 0.00 | 85 | 1014.6 |
| 20260505073656 | 54 | 215 | 5.0 | 9.0 | 0.00 | 0.00 | 0.00 | 85 | 1014.7 |
| 20260505073157 | 55 | 216 | 6.0 | 11.0 | 0.00 | 0.00 | 0.00 | 85 | 1014.6 |
| 20260505072653 | 55 | 217 | 6.0 | 11.0 | 0.00 | 0.00 | 0.00 | 84 | 1014.7 |
| 20260505072407 | 55 | 224 | 5.0 | 9.0 | 0.00 | 0.00 | 0.00 | 84 | 1014.6 |
| 20260505071650 | 55 | 229 | 6.0 | 11.0 | 0.00 | 0.00 | 0.00 | 84 | 1014.6 |
| 20260505071154 | 55 | 241 | 7.0 | 11.0 | 0.00 | 0.00 | 0.00 | 84 | 1014.6 |
| 20260505070651 | 55 | 226 | 7.0 | 11.0 | 0.00 | 0.00 | 0.00 | 84 | 1014.5 |
| 20260505070148 | 55 | 233 | 8.0 | 13.0 | 0.00 | 0.00 | 0.00 | 84 | 1014.5 |
| 20260505065651 | 55 | 237 | 8.0 | 13.0 | 0.00 | 0.00 | 0.00 | 84 | 1014.6 |
| 20260505065406 | 55 | 220 | 7.0 | 11.0 | 0.00 | 0.00 | 0.00 | 84 | 1014.5 |
| 20260505064647 | 55 | 254 | 6.0 | 10.0 | 0.00 | 0.00 | 0.00 | 84 | 1014.5 |
| 20260505064145 | 55 | 229 | 6.0 | 11.0 | 0.00 | 0.00 | 0.00 | 84 | 1014.4 |
| 20260505063646 | 55 | 236 | 7.0 | 11.0 | 0.00 | 0.00 | 0.00 | 84 | 1014.4 |
| 20260505063625 | 55 | 249 | 7.0 | 12.0 | 0.00 | 0.00 | 0.00 | 84 | 1014.4 |
| 20260505062623 | 55 | 220 | 8.0 | 12.0 | 0.00 | 0.00 | 0.00 | 84 | 1014.4 |
| 20260505062109 | 55 | 215 | 7.0 | 11.0 | 0.00 | 0.00 | 0.00 | 83 | 1014.5 |
| 20260505061600 | 55 | 237 | 6.0 | 10.0 | 0.00 | 0.00 | 0.00 | 83 | 1014.4 |
| 20260505061540 | 55 | 235 | 5.0 | 9.0 | 0.00 | 0.00 | 0.00 | 83 | 1014.5 |
| 20260505060559 | 55 | 254 | 7.0 | 13.0 | 0.00 | 0.00 | 0.00 | 83 | 1014.5 |
| 20260505060055 | 55 | 246 | 7.0 | 13.0 | 0.00 | 0.00 | 0.00 | 83 | 1014.4 |
| 20260505055557 | 55 | 236 | 6.0 | 11.0 | 0.00 | 0.00 | 0.00 | 83 | 1014.4 |
| 20260505055054 | 55 | 222 | 6.0 | 11.0 | 0.00 | 0.00 | 0.00 | 83 | 1014.4 |
| 20260505054551 | 55 | 243 | 6.0 | 11.0 | 0.00 | 0.00 | 0.00 | 83 | 1014.3 |
| 20260505054050 | 55 | 231 | 6.0 | 11.0 | 0.00 | 0.00 | 0.00 | 83 | 1014.4 |
| 20260505053551 | 55 | 216 | 6.0 | 10.0 | 0.00 | 0.00 | 0.00 | 83 | 1014.3 |
| 20260505053051 | 55 | 245 | 7.0 | 11.0 | 0.00 | 0.00 | 0.00 | 83 | 1014.2 |
| 20260505052814 | 55 | 249 | 7.0 | 12.0 | 0.00 | 0.00 | 0.00 | 83 | 1014.2 |
| 20260505052049 | 55 | 223 | 6.0 | 12.0 | 0.00 | 0.00 | 0.00 | 83 | 1014.3 |
| 20260505051547 | 55 | 225 | 7.0 | 10.0 | 0.00 | 0.00 | 0.00 | 83 | 1014.4 |
| 20260505051047 | 55 | 248 | 7.0 | 10.0 | 0.00 | 0.00 | 0.00 | 83 | 1014.3 |
| 20260505051036 | 55 | 217 | 7.0 | 10.0 | 0.00 | 0.00 | 0.00 | 83 | 1014.2 |
| 20260505050307 | 55 | 233 | 7.0 | 12.0 | 0.00 | 0.00 | 0.00 | 83 | 1014.1 |
| 20260505041539 | 55 | 220 | 7.0 | 14.0 | 0.00 | 0.00 | 0.00 | 83 | 1013.6 |
| 20260505041038 | 55 | 233 | 7.0 | 11.0 | 0.00 | 0.00 | 0.00 | 83 | 1013.5 |
| 20260505040537 | 55 | 226 | 8.0 | 11.0 | 0.00 | 0.00 | 0.00 | 83 | 1013.5 |
| 20260505040038 | 55 | 222 | 7.0 | 11.0 | 0.00 | 0.00 | 0.00 | 83 | 1013.3 |
| 20260505035537 | 55 | 225 | 7.0 | 11.0 | 0.00 | 0.00 | 0.00 | 83 | 1013.1 |
| 20260505035038 | 55 | 233 | 7.0 | 12.0 | 0.00 | 0.00 | 0.00 | 83 | 1013.3 |
| 20260505034536 | 55 | 172 | 7.0 | 12.0 | 0.00 | 0.00 | 0.00 | 83 | 1013.1 |
| 20260505034035 | 55 | 194 | 6.0 | 12.0 | 0.00 | 0.00 | 0.00 | 83 | 1013.1 |
| 20260505033534 | 56 | 189 | 6.0 | 12.0 | 0.00 | 0.00 | 0.00 | 83 | 1013.0 |
| 20260505033032 | 56 | 227 | 6.0 | 12.0 | 0.00 | 0.00 | 0.00 | 82 | 1013.0 |
| 20260505032536 | 56 | 253 | 7.0 | 11.0 | 0.00 | 0.00 | 0.00 | 82 | 1012.9 |
| 20260505032034 | 56 | 232 | 7.0 | 13.0 | 0.00 | 0.00 | 0.00 | 81 | 1012.9 |
| 20260505031533 | 57 | 221 | 7.0 | 13.0 | 0.00 | 0.00 | 0.00 | 81 | 1012.8 |
| 20260505031032 | 57 | 229 | 7.0 | 11.0 | 0.00 | 0.00 | 0.00 | 80 | 1012.8 |
| 20260505030531 | 57 | 238 | 8.0 | 13.0 | 0.00 | 0.00 | 0.00 | 80 | 1012.6 |
| 20260505030032 | 58 | 228 | 8.0 | 13.0 | 0.00 | 0.00 | 0.00 | 79 | 1012.5 |
| 20260505025531 | 58 | 236 | 7.0 | 13.0 | 0.00 | 0.00 | 0.00 | 79 | 1012.5 |
| 20260505025030 | 58 | 241 | 7.0 | 13.0 | 0.00 | 0.00 | 0.00 | 79 | 1012.4 |
| 20260505024531 | 58 | 223 | 7.0 | 11.0 | 0.00 | 0.00 | 0.00 | 78 | 1012.3 |
| 20260505024026 | 59 | 216 | 6.0 | 11.0 | 0.00 | 0.00 | 0.00 | 78 | 1012.2 |
| 20260505023525 | 59 | 216 | 6.0 | 10.0 | 0.00 | 0.00 | 0.00 | 78 | 1012.2 |
| 20260505023244 | 59 | 212 | 7.0 | 14.0 | 0.00 | 0.00 | 0.00 | 78 | 1012.2 |
| 20260505022524 | 59 | 259 | 9.0 | 14.0 | 0.00 | 0.00 | 0.00 | 77 | 1012.1 |
| 20260505022019 | 60 | 230 | 10.0 | 14.0 | 0.00 | 0.00 | 0.00 | 76 | 1012.1 |
| 20260505021519 | 60 | 230 | 9.0 | 15.0 | 0.00 | 0.00 | 0.00 | 76 | 1012.1 |
| 20260505021012 | 60 | 227 | 9.0 | 15.0 | 0.00 | 0.00 | 0.00 | 75 | 1012.1 |
| 20260505020510 | 61 | 218 | 8.0 | 13.0 | 0.00 | 0.00 | 0.00 | 75 | 1012.1 |
| 20260505020011 | 61 | 224 | 8.0 | 13.0 | 0.00 | 0.00 | 0.00 | 75 | 1012.1 |
| 20260505015511 | 61 | 231 | 9.0 | 17.0 | 0.00 | 0.00 | 0.00 | 75 | 1012.1 |
| 20260505015007 | 61 | 236 | 9.0 | 17.0 | 0.00 | 0.00 | 0.00 | 74 | 1012.2 |
| 20260505014507 | 62 | 260 | 10.0 | 16.0 | 0.00 | 0.00 | 0.00 | 74 | 1012.1 |
| 20260505013958 | 62 | 229 | 11.0 | 17.0 | 0.00 | 0.00 | 0.00 | 74 | 1012.2 |
| 20260505013457 | 62 | 211 | 11.0 | 17.0 | 0.00 | 0.00 | 0.00 | 73 | 1012.2 |
| 20260505013000 | 62 | 233 | 11.0 | 17.0 | 0.00 | 0.00 | 0.00 | 72 | 1012.0 |
| 20260505012456 | 63 | 270 | 11.0 | 17.0 | 0.00 | 0.00 | 0.00 | 72 | 1012.2 |
| 20260505011956 | 63 | 241 | 12.0 | 16.0 | 0.00 | 0.00 | 0.00 | 72 | 1012.1 |
| 20260505011719 | 63 | 237 | 11.0 | 16.0 | 0.00 | 0.00 | 0.00 | 72 | 1012.2 |
| 20260505010954 | 64 | 231 | 10.0 | 16.0 | 0.00 | 0.00 | 0.00 | 71 | 1012.1 |
| 20260505010454 | 64 | 221 | 10.0 | 17.0 | 0.00 | 0.00 | 0.00 | 70 | 1012.2 |
| 20260505005952 | 64 | 261 | 10.0 | 17.0 | 0.00 | 0.00 | 0.00 | 71 | 1012.1 |
| 20260505005452 | 64 | 232 | 10.0 | 16.0 | 0.00 | 0.00 | 0.00 | 70 | 1012.3 |
| 20260505004952 | 65 | 230 | 10.0 | 16.0 | 0.00 | 0.00 | 0.00 | 70 | 1012.2 |
| 20260505004448 | 65 | 275 | 10.0 | 18.0 | 0.00 | 0.00 | 0.00 | 69 | 1012.2 |
| 20260505003950 | 65 | 226 | 11.0 | 19.0 | 0.00 | 0.00 | 0.00 | 70 | 1012.3 |
| 20260505003708 | 65 | 243 | 11.0 | 19.0 | 0.00 | 0.00 | 0.00 | 69 | 1012.2 |
| 20260505003215 | 65 | 243 | 10.0 | 17.0 | 0.00 | 0.00 | 0.00 | 70 | 1012.1 |
| 20260505002448 | 66 | 249 | 10.0 | 17.0 | 0.00 | 0.00 | 0.00 | 68 | 1012.0 |
| 20260505001946 | 66 | 250 | 10.0 | 17.0 | 0.00 | 0.00 | 0.00 | 68 | 1012.1 |
| 20260505001445 | 67 | 243 | 10.0 | 16.0 | 0.00 | 0.00 | 0.00 | 68 | 1012.1 |
| 20260505000946 | 67 | 250 | 10.0 | 16.0 | 0.00 | 0.00 | 0.00 | 66 | 1012.1 |
| 20260505000444 | 67 | 251 | 8.0 | 15.0 | 0.00 | 0.00 | 0.00 | 68 | 1012.1 |
| 20260504235941 | 67 | 251 | 9.0 | 18.0 | 0.00 | 0.00 | 0.00 | 68 | 1012.2 |
| 20260504235702 | 67 | 244 | 11.0 | 18.0 | 0.00 | 0.00 | 0.00 | 67 | 1012.2 |
| 20260504234942 | 67 | 225 | 10.0 | 17.0 | 0.00 | 0.00 | 0.00 | 67 | 1012.3 |
| 20260504234441 | 67 | 223 | 9.0 | 16.0 | 0.00 | 0.00 | 0.00 | 67 | 1012.1 |
| 20260504233939 | 67 | 235 | 8.0 | 16.0 | 0.00 | 0.00 | 0.00 | 67 | 1012.1 |
| 20260504233442 | 68 | 252 | 8.0 | 13.0 | 0.00 | 0.00 | 0.00 | 67 | 1012.1 |
| 20260504232939 | 68 | 231 | 9.0 | 14.0 | 0.00 | 0.00 | 0.00 | 67 | 1012.2 |
| 20260504232436 | 68 | 256 | 9.0 | 14.0 | 0.00 | 0.00 | 0.00 | 67 | 1012.2 |
| 20260504232159 | 68 | 238 | 9.0 | 15.0 | 0.00 | 0.00 | 0.00 | 68 | 1012.2 |
| 20260504231433 | 68 | 226 | 9.0 | 15.0 | 0.00 | 0.00 | 0.00 | 67 | 1012.4 |
| 20260504230932 | 68 | 252 | 9.0 | 15.0 | 0.00 | 0.00 | 0.00 | 68 | 1012.4 |
| 20260504230427 | 68 | 225 | 9.0 | 15.0 | 0.00 | 0.00 | 0.00 | 68 | 1012.4 |
| 20260504225927 | 68 | 249 | 9.0 | 15.0 | 0.00 | 0.00 | 0.00 | 69 | 1012.6 |
| 20260504225428 | 68 | 229 | 9.0 | 15.0 | 0.00 | 0.00 | 0.00 | 66 | 1012.5 |
| 20260504224924 | 68 | 237 | 8.0 | 14.0 | 0.00 | 0.00 | 0.00 | 66 | 1012.7 |
| 20260504224424 | 69 | 254 | 9.0 | 16.0 | 0.00 | 0.00 | 0.00 | 66 | 1012.7 |
| 20260504223922 | 69 | 305 | 9.0 | 16.0 | 0.00 | 0.00 | 0.00 | 67 | 1012.8 |
| 20260504223421 | 69 | 243 | 8.0 | 15.0 | 0.00 | 0.00 | 0.00 | 66 | 1012.7 |
| 20260504223142 | 69 | 258 | 8.0 | 15.0 | 0.00 | 0.00 | 0.00 | 64 | 1012.9 |
| 20260504222415 | 69 | 310 | 8.0 | 13.0 | 0.00 | 0.00 | 0.00 | 66 | 1013.1 |
| 20260504221918 | 69 | 227 | 8.0 | 14.0 | 0.00 | 0.00 | 0.00 | 67 | 1013.0 |
| 20260504221641 | 69 | 250 | 9.0 | 14.0 | 0.00 | 0.00 | 0.00 | 65 | 1013.1 |
| 20260504220910 | 69 | 270 | 8.0 | 14.0 | 0.00 | 0.00 | 0.00 | 65 | 1013.2 |
| 20260504220411 | 69 | 256 | 8.0 | 14.0 | 0.00 | 0.00 | 0.00 | 64 | 1013.2 |
| 20260504220347 | 69 | 238 | 8.0 | 14.0 | 0.00 | 0.00 | 0.00 | 66 | 1013.2 |
| 20260504215409 | 70 | 221 | 8.0 | 15.0 | 0.00 | 0.00 | 0.00 | 65 | 1013.3 |
| 20260504214909 | 69 | 265 | 7.0 | 15.0 | 0.00 | 0.00 | 0.00 | 65 | 1013.2 |
| 20260504214407 | 69 | 249 | 8.0 | 13.0 | 0.00 | 0.00 | 0.00 | 67 | 1013.2 |
| 20260504214130 | 68 | 220 | 7.0 | 13.0 | 0.00 | 0.00 | 0.00 | 66 | 1013.2 |
| 20260504213404 | 67 | 259 | 5.0 | 11.0 | 0.00 | 0.00 | 0.00 | 69 | 1013.2 |
| 20260504212902 | 66 | 230 | 5.0 | 10.0 | 0.00 | 0.00 | 0.00 | 70 | 1013.3 |
| 20260504212403 | 67 | 225 | 5.0 | 11.0 | 0.00 | 0.00 | 0.00 | 69 | 1013.2 |
| 20260504211902 | 66 | 161 | 5.0 | 11.0 | 0.00 | 0.00 | 0.00 | 70 | 1013.3 |
| 20260504211401 | 65 | 255 | 4.0 | 10.0 | 0.00 | 0.00 | 0.00 | 69 | 1013.4 |
| 20260504211118 | 65 | 227 | 4.0 | 10.0 | 0.00 | 0.00 | 0.00 | 69 | 1013.4 |
| 20260504210400 | 65 | 260 | 3.0 | 9.0 | 0.00 | 0.00 | 0.00 | 69 | 1013.4 |
| 20260504205859 | 64 | 186 | 3.0 | 9.0 | 0.00 | 0.00 | 0.00 | 72 | 1013.4 |
| 20260504205619 | 65 | 191 | 3.0 | 9.0 | 0.00 | 0.00 | 0.00 | 68 | 1013.4 |
| 20260504204859 | 65 | 229 | 2.0 | 7.0 | 0.00 | 0.00 | 0.00 | 69 | 1013.5 |
| 20260504204357 | 64 | 254 | 2.0 | 8.0 | 0.00 | 0.00 | 0.00 | 73 | 1013.5 |
| 20260504203855 | 64 | 237 | 4.0 | 9.0 | 0.00 | 0.00 | 0.00 | 71 | 1013.6 |
| 20260504203354 | 63 | 194 | 4.0 | 9.0 | 0.00 | 0.00 | 0.00 | 72 | 1013.6 |
| 20260504203123 | 63 | 196 | 5.0 | 12.0 | 0.00 | 0.00 | 0.00 | 73 | 1013.5 |
| 20260504202357 | 63 | 229 | 5.0 | 12.0 | 0.00 | 0.00 | 0.00 | 72 | 1013.6 |
| 20260504201853 | 63 | 218 | 5.0 | 11.0 | 0.00 | 0.00 | 0.00 | 72 | 1013.6 |
| 20260504201355 | 62 | 219 | 4.0 | 11.0 | 0.00 | 0.00 | 0.00 | 73 | 1013.6 |
| 20260504200855 | 62 | 139 | 4.0 | 9.0 | 0.00 | 0.00 | 0.00 | 72 | 1013.8 |
| 20260504200352 | 62 | 232 | 5.0 | 9.0 | 0.00 | 0.00 | 0.00 | 73 | 1013.6 |
| 20260504200114 | 62 | 192 | 5.0 | 9.0 | 0.00 | 0.00 | 0.00 | 74 | 1013.6 |
| 20260504195351 | 62 | 187 | 5.0 | 8.0 | 0.00 | 0.00 | 0.00 | 74 | 1013.8 |
| 20260504194849 | 61 | 206 | 5.0 | 10.0 | 0.00 | 0.00 | 0.00 | 74 | 1013.8 |
| 20260504194349 | 61 | 162 | 5.0 | 10.0 | 0.00 | 0.00 | 0.00 | 75 | 1013.6 |
| 20260504193848 | 61 | 235 | 4.0 | 9.0 | 0.00 | 0.00 | 0.00 | 76 | 1013.6 |
| 20260504193346 | 61 | 126 | 4.0 | 9.0 | 0.00 | 0.00 | 0.00 | 76 | 1013.6 |
| 20260504192846 | 61 | 212 | 5.0 | 9.0 | 0.00 | 0.00 | 0.00 | 74 | 1013.8 |
| 20260504192345 | 61 | 214 | 5.0 | 10.0 | 0.00 | 0.00 | 0.00 | 74 | 1013.8 |
| 20260504191847 | 61 | 226 | 6.0 | 10.0 | 0.00 | 0.00 | 0.00 | 75 | 1013.8 |
| 20260504191347 | 61 | 244 | 6.0 | 10.0 | 0.00 | 0.00 | 0.00 | 75 | 1013.8 |
| 20260504191112 | 61 | 201 | 5.0 | 9.0 | 0.00 | 0.00 | 0.00 | 76 | 1013.9 |
| 20260504190606 | 61 | 221 | 4.0 | 8.0 | 0.00 | 0.00 | 0.00 | 75 | 1013.9 |
| 20260504185847 | 60 | 231 | 3.0 | 8.0 | 0.00 | 0.00 | 0.00 | 77 | 1014.0 |
| 20260504185345 | 60 | 169 | 4.0 | 10.0 | 0.00 | 0.00 | 0.00 | 76 | 1014.0 |
| 20260504185337 | 60 | 219 | 5.0 | 10.0 | 0.00 | 0.00 | 0.00 | 78 | 1014.1 |
| 20260504184344 | 60 | 229 | 4.0 | 9.0 | 0.00 | 0.00 | 0.00 | 78 | 1014.1 |
| 20260504184100 | 59 | 212 | 4.0 | 9.0 | 0.00 | 0.00 | 0.00 | 77 | 1014.1 |
| 20260504183337 | 59 | 224 | 4.0 | 9.0 | 0.00 | 0.00 | 0.00 | 78 | 1014.1 |
| 20260504182837 | 59 | 164 | 4.0 | 9.0 | 0.00 | 0.00 | 0.00 | 78 | 1014.2 |
| 20260504182332 | 58 | 235 | 4.0 | 9.0 | 0.00 | 0.00 | 0.00 | 79 | 1014.1 |
| 20260504182055 | 58 | 212 | 3.0 | 8.0 | 0.00 | 0.00 | 0.00 | 79 | 1014.1 |
| 20260504181556 | 58 | 231 | 4.0 | 8.0 | 0.00 | 0.00 | 0.00 | 79 | 1014.1 |
| 20260504180822 | 58 | 217 | 4.0 | 8.0 | 0.00 | 0.00 | 0.00 | 79 | 1014.1 |
| 20260504180322 | 58 | 240 | 3.0 | 8.0 | 0.00 | 0.00 | 0.00 | 80 | 1014.2 |
| 20260504175823 | 58 | 228 | 3.0 | 8.0 | 0.00 | 0.00 | 0.00 | 79 | 1014.3 |
| 20260504175542 | 58 | 212 | 3.0 | 7.0 | 0.00 | 0.00 | 0.00 | 80 | 1014.2 |
| 20260504174817 | 57 | 154 | 4.0 | 9.0 | 0.00 | 0.00 | 0.00 | 81 | 1014.2 |
| 20260504174312 | 57 | 187 | 4.0 | 9.0 | 0.00 | 0.00 | 0.00 | 81 | 1014.1 |
| 20260504173811 | 57 | 138 | 3.0 | 7.0 | 0.00 | 0.00 | 0.00 | 82 | 1014.2 |
| 20260504173310 | 57 | 196 | 4.0 | 8.0 | 0.00 | 0.00 | 0.00 | 81 | 1014.4 |
| 20260504172309 | 57 | 225 | 3.0 | 7.0 | 0.00 | 0.00 | 0.00 | 82 | 1014.3 |
| 20260504171809 | 57 | 166 | 4.0 | 9.0 | 0.00 | 0.00 | 0.00 | 82 | 1014.4 |
| 20260504171310 | 57 | 201 | 4.0 | 9.0 | 0.00 | 0.00 | 0.00 | 82 | 1014.2 |
| 20260504170810 | 56 | 190 | 4.0 | 7.0 | 0.00 | 0.00 | 0.00 | 82 | 1014.2 |
| 20260504170532 | 57 | 191 | 3.0 | 7.0 | 0.00 | 0.00 | 0.00 | 83 | 1014.2 |
| 20260504160257 | 55 | 177 | 4.0 | 8.0 | 0.00 | 0.00 | 0.00 | 84 | 1014.0 |
| 20260504151011 | 55 | 230 | 4.0 | 10.0 | 0.00 | 0.00 | 0.00 | 84 | 1013.8 |
| 20260504150250 | 55 | 223 | 4.0 | 9.0 | 0.00 | 0.00 | 0.00 | 84 | 1013.8 |
| 20260504141224 | 54 | 190 | 5.0 | 10.0 | 0.00 | 0.00 | 0.00 | 86 | 1013.4 |
| 20260504140725 | 54 | 200 | 4.0 | 9.0 | 0.00 | 0.00 | 0.00 | 86 | 1013.3 |
| 20260504140218 | 54 | 161 | 4.0 | 7.0 | 0.00 | 0.00 | 0.00 | 86 | 1013.2 |